This is the latest recevied weather packets stored in our database for station/object KI4MRC. If no packets are shown the sender has not sent any weather packets the latest 1 day(s).
| Time | Temp. | Humidity | Pressure | Rain* | Wind** | Luminosity | Snow |
|---|---|---|---|---|---|---|---|
| 1778050485 | 23.33° C | 91% | 1015 hPa | 0 mm | 0.89 m/s, 82° | 0 W/m² | - |
| 1778050181 | 23.33° C | 91% | 1015.1 hPa | 0 mm | 0.89 m/s, 76° | 0 W/m² | - |
| 1778049877 | 23.33° C | 91% | 1015.2 hPa | 0 mm | 1.34 m/s, 85° | 0 W/m² | - |
| 1778049574 | 23.33° C | 91% | 1015.3 hPa | 0 mm | 0.89 m/s, 75° | 0 W/m² | - |
| 1778049271 | 23.33° C | 91% | 1015.2 hPa | 0 mm | 0.89 m/s, 65° | 0 W/m² | - |
| 1778048969 | 23.33° C | 91% | 1015.2 hPa | 0 mm | 0.89 m/s, 74° | 0 W/m² | - |
| 1778048668 | 23.33° C | 91% | 1015.3 hPa | 0 mm | 0.89 m/s, 80° | 0 W/m² | - |
| 1778048363 | 23.33° C | 91% | 1015.5 hPa | 0 mm | 0.89 m/s, 76° | 0 W/m² | - |
| 1778048060 | 23.33° C | 91% | 1015.4 hPa | 0 mm | 1.34 m/s, 63° | 0 W/m² | - |
| 1778047758 | 23.33° C | 91% | 1015.5 hPa | 0 mm | 0.89 m/s, 81° | 0 W/m² | - |
| 1778047456 | 23.33° C | 91% | 1015.4 hPa | 0 mm | 0.89 m/s, 68° | 0 W/m² | - |
| 1778047153 | 23.33° C | 91% | 1015.4 hPa | 0 mm | 0.89 m/s, 73° | 0 W/m² | - |
| 1778046849 | 23.33° C | 91% | 1015.5 hPa | 0 mm | 1.34 m/s, 85° | 0 W/m² | - |
| 1778046546 | 23.33° C | 92% | 1015.7 hPa | 0 mm | 1.34 m/s, 77° | 0 W/m² | - |
| 1778046243 | 23.33° C | 92% | 1015.5 hPa | 0 mm | 1.34 m/s, 67° | 0 W/m² | - |
| 1778045939 | 23.33° C | 92% | 1015.5 hPa | 0 mm | 1.34 m/s, 68° | 0 W/m² | - |
| 1778045638 | 22.78° C | 93% | 1015.6 hPa | 0 mm | 0.89 m/s, 76° | 0 W/m² | - |
| 1778045336 | 22.78° C | 93% | 1015.7 hPa | 0 mm | 0.89 m/s, 77° | 0 W/m² | - |
| 1778045034 | 22.78° C | 94% | 1015.7 hPa | 0 mm | 0.89 m/s, 62° | 0 W/m² | - |
| 1778044732 | 22.78° C | 94% | 1015.8 hPa | 0 mm | 1.34 m/s, 70° | 0 W/m² | - |
| 1778044428 | 22.78° C | 94% | 1015.6 hPa | 0 mm | 0.89 m/s, 80° | 0 W/m² | - |
| 1778044125 | 22.78° C | 94% | 1015.7 hPa | 0 mm | 0.89 m/s, 75° | 0 W/m² | - |
| 1778043822 | 22.78° C | 93% | 1015.9 hPa | 0 mm | 0.89 m/s, 78° | 0 W/m² | - |
| 1778043519 | 22.78° C | 93% | 1016 hPa | 0 mm | 1.34 m/s, 59° | 0 W/m² | - |
| 1778043216 | 22.78° C | 93% | 1015.9 hPa | 0 mm | 0.89 m/s, 69° | 0 W/m² | - |
* Rain latest hour (hover to see other rain measurements)
** Current wind speed in m/s (hover to see current wind gust speed)